TimeMDT,TemperatureF,Dew PointF,Humidity,Sea Level PressureIn,VisibilityMPH,Wind Direction,Wind SpeedMPH,Gust SpeedMPH,PrecipitationIn,Events,Conditions,WindDirDegrees,DateUTC
12:53 AM,36.0,33.1,89,30.40,10.0,NNE,9.2,-,N/A,,Overcast,20,2012-10-05 06:53:00
1:53 AM,35.6,33.8,93,30.34,9.0,NNE,8.1,-,N/A,Snow,Light Snow,30,2012-10-05 07:53:00
2:53 AM,35.1,33.1,92,30.40,9.0,NNE,8.1,-,0.00,Snow,Light Snow,30,2012-10-05 08:53:00
3:53 AM,35.1,33.1,92,30.39,9.0,NNE,5.8,-,0.00,Snow,Light Snow,30,2012-10-05 09:53:00
4:53 AM,35.1,33.1,92,30.39,10.0,NNE,5.8,-,0.00,,Overcast,20,2012-10-05 10:53:00
5:53 AM,35.1,32.0,89,30.40,10.0,NNE,5.8,-,N/A,,Overcast,20,2012-10-05 11:53:00
6:53 AM,34.0,32.0,92,30.41,10.0,North,8.1,-,N/A,,Overcast,10,2012-10-05 12:53:00
7:24 AM,33.8,30.2,87,30.34,10.0,NNE,6.9,-,N/A,,Overcast,20,2012-10-05 13:24:00
7:53 AM,33.1,30.9,92,30.43,10.0,NNW,5.8,-,N/A,,Mostly Cloudy,340,2012-10-05 13:53:00
8:46 AM,33.8,30.2,87,30.36,10.0,NNW,5.8,-,N/A,,Overcast,340,2012-10-05 14:46:00
8:53 AM,34.0,30.9,89,30.44,10.0,North,4.6,-,N/A,,Overcast,360,2012-10-05 14:53:00
9:53 AM,35.6,30.2,81,30.38,10.0,NNE,6.9,-,N/A,,Overcast,20,2012-10-05 15:53:00
10:29 AM,35.6,30.2,81,30.38,10.0,ENE,3.5,-,N/A,,Overcast,60,2012-10-05 16:29:00
10:53 AM,37.0,30.9,79,30.45,10.0,East,5.8,-,N/A,,Overcast,80,2012-10-05 16:53:00
11:03 AM,37.4,30.2,75,30.38,10.0,ENE,6.9,-,N/A,,Overcast,70,2012-10-05 17:03:00
11:53 AM,39.0,28.9,67,30.45,10.0,NE,6.9,-,N/A,,Overcast,40,2012-10-05 17:53:00
12:53 PM,37.9,28.9,70,30.45,10.0,North,12.7,-,0.00,Snow,Light Snow,350,2012-10-05 18:53:00
12:58 PM,37.4,26.6,65,30.38,10.0,NNE,10.4,-,0.00,Snow,Light Snow,20,2012-10-05 18:58:00
1:15 PM,35.6,26.6,70,30.38,0.8,Variable,5.8,-,0.00,Snow,Light Snow,0,2012-10-05 19:15:00
1:20 PM,35.6,26.6,70,30.38,1.0,SSE,3.5,-,0.00,Snow,Light Snow,150,2012-10-05 19:20:00
1:27 PM,35.6,28.4,75,30.37,9.0,South,4.6,-,0.00,Snow,Light Snow,170,2012-10-05 19:27:00
1:38 PM,37.4,30.2,75,30.37,10.0,Calm,Calm,-,0.00,,Overcast,0,2012-10-05 19:38:00
1:53 PM,37.9,30.0,73,30.43,10.0,Calm,Calm,-,0.00,,Overcast,0,2012-10-05 19:53:00
2:18 PM,37.4,30.2,75,30.37,2.5,North,11.5,-,0.00,Snow,Light Snow,360,2012-10-05 20:18:00
2:24 PM,35.6,30.2,81,30.37,8.0,North,4.6,-,0.00,Snow,Light Snow,360,2012-10-05 20:24:00
2:53 PM,36.0,32.0,86,30.44,9.0,East,4.6,-,0.00,,Overcast,100,2012-10-05 20:53:00
3:53 PM,39.0,30.9,73,30.44,10.0,North,5.8,-,N/A,,Overcast,350,2012-10-05 21:53:00
4:53 PM,37.0,30.9,79,30.45,10.0,ENE,6.9,-,N/A,,Overcast,60,2012-10-05 22:53:00
5:49 PM,35.6,30.2,81,30.40,10.0,NNE,19.6,26.5,N/A,,Overcast,30,2012-10-05 23:49:00
5:53 PM,33.1,30.0,89,30.49,4.0,NNE,16.1,26.5,0.00,Snow,Light Snow,30,2012-10-05 23:53:00
5:58 PM,33.8,30.2,87,30.40,2.0,NNE,17.3,26.5,0.00,,Small Hail,20,2012-10-05 23:58:00
6:00 PM,33.8,30.2,87,30.40,1.0,NNE,12.7,-,N/A,,Small Hail,30,2012-10-06 00:00:00
6:11 PM,32.0,30.2,93,30.40,0.8,NNE,13.8,-,0.02,Snow,Light Snow,30,2012-10-06 00:11:00
6:17 PM,30.2,30.2,100,30.40,0.2,NNE,15.0,-,0.03,Fog-Snow,Heavy Snow,30,2012-10-06 00:17:00
6:27 PM,30.2,30.2,100,30.40,0.2,NE,13.8,-,0.04,Fog-Snow,Snow,40,2012-10-06 00:27:00
6:44 PM,30.2,30.2,100,30.41,0.5,NNE,9.2,-,0.05,Fog-Snow,Snow,20,2012-10-06 00:44:00
6:53 PM,30.9,30.9,100,30.50,0.8,NE,8.1,-,0.06,Snow,Light Snow,40,2012-10-06 00:53:00
7:02 PM,30.2,30.2,100,30.40,3.0,NE,6.9,-,0.00,Snow,Light Snow,50,2012-10-06 01:02:00
7:53 PM,30.9,28.9,92,30.51,10.0,Calm,Calm,-,0.00,,Scattered Clouds,0,2012-10-06 01:53:00
8:53 PM,30.9,28.9,92,30.52,10.0,NNW,3.5,-,N/A,,Mostly Cloudy,340,2012-10-06 02:53:00
9:13 PM,28.4,28.4,100,30.42,10.0,NW,4.6,-,N/A,,Scattered Clouds,320,2012-10-06 03:13:00
9:53 PM,30.0,28.0,92,30.52,10.0,NW,8.1,-,N/A,,Partly Cloudy,320,2012-10-06 03:53:00
10:53 PM,28.0,27.0,96,30.52,10.0,WNW,6.9,-,N/A,,Mostly Cloudy,300,2012-10-06 04:53:00
11:53 PM,28.0,26.1,92,30.52,10.0,West,6.9,-,N/A,,Mostly Cloudy,280,2012-10-06 05:53:00